Home > Weather > Barsinghausen > Past weeks

Flag for Germany Past Weather in Barsinghausen, Lower Saxony, Germany — Yesterday and Last 2 Weeks

Now
68 °F

Mild.


Feels Like: 68 °F
Forecast: 53 / 65 °F
Wind: 9 mph from West

Location: Wunstorf Airport

Current Time: Aug 29, 2016 at 12:46:01 AM

Latest Report: Aug 28, 2016 at 11:20 PM


Visibility: N/A

Pressure: 29.95 "Hg

Humidity: 60%

Dew Point: 54 °F

Location of BarsinghausenLocation

Past Weather in Barsinghausen — Graph

°F

Barsinghausen Temperature Yesterday

Maximum temperature yesterday: 95 °F (at 3:20 PM)
Minimum temperature yesterday: 66 °F (at 7:20 AM)
Average temperature yesterday: 78 °F

High & Low Weather Summary for the Past Weeks

 TemperatureHumidityPressure
High95 °F (Aug 28, 3:20 PM)94% (Aug 14, 7:20 AM)30.33 "Hg (Aug 14, 7:20 AM)
Low46 °F (Aug 18, 5:20 AM)24% (Aug 25, 5:20 PM)29.80 "Hg (Aug 18, 3:20 PM)
Average68 °F66%30.06 "Hg
* Reported Aug 13 11:20 PM — Aug 28 11:20 PM, Barsinghausen, Weather by CustomWeather, © 2016

Note: Actual official high and low records may vary slightly from our data, if they occured in-between our weather recording intervals... More about our weather records

Advertising

Barsinghausen Weather History for the Previous 24 Hours

Scroll right to see more
 ConditionsComfort  
Time TempWeatherWind HumidityBarometerVisibility
11:20 PM
Sun, Aug 28
68 °FMild.9 mph60%29.95 "HgN/A
10:20 PM72 °FMild.14 mph53%29.95 "Hg6 mi
9:20 PM73 °FMild.18 mph65%29.92 "HgN/A
8:20 PM79 °FWarm.15 mph42%29.89 "HgN/A
7:20 PM81 °FWarm.12 mph51%29.86 "HgN/A
6:20 PM84 °FWarm.16 mph51%29.86 "Hg6 mi
5:20 PM88 °FWarm.12 mph40%29.80 "HgN/A
4:20 PM91 °FHot.16 mph30%29.80 "HgN/A
3:20 PM95 °FExtremely hot.16 mph26%29.80 "Hg5 mi
2:20 PM93 °FExtremely hot.10 mph30%29.83 "Hg6 mi
1:20 PM91 °FHot.10 mph32%29.86 "Hg6 mi
12:20 PM90 °FHot.9 mph36%29.86 "HgN/A
11:20 AM82 °FWarm.6 mph48%29.89 "HgN/A
10:20 AM77 °FWarm.7 mph61%29.89 "HgN/A
9:20 AM73 °FMild.8 mph69%29.89 "HgN/A
8:20 AM70 °FMild.6 mph78%29.92 "HgN/A
7:20 AM66 °FMild.5 mph83%29.92 "HgN/A
6:20 AM68 °FMild.5 mph78%29.92 "Hg6 mi
5:20 AM70 °FMild.7 mph78%29.92 "HgN/A
4:20 AM70 °FMild.8 mph73%29.92 "HgN/A
3:20 AM70 °FMild.9 mph73%29.92 "HgN/A
2:20 AM70 °FMild.7 mph78%29.92 "HgN/A
1:20 AM72 °FMild.3 mph73%29.95 "HgN/A
12:20 AM72 °FMild.8 mph73%29.98 "HgN/A
Weather by CustomWeather, © 2016

See weather overviewHow to use our weather pages